Terminal Aerodrome Forecast
Issued by NWS Omaha/Valley, NE

Home | Current Version | Previous Version | Text Only | Print | Product List | Glossary Off
Versions: 1 2 3 4 5 6 7 8 9 10 11 12 13 14 15 16 17 18 19 20 21 22 23 24 25 26 27 28 29 30 31 32 33 34 35 36 37 38 39 40 41 42

085
FTUS43 KOAX 102249 AAA
TAFOFK
TAF AMD
KOFK 102249Z 1023/1118 09007KT P6SM SCT250
     FM110000 07006KT P6SM SCT015
      TEMPO 1102/1104 BKN015
     FM110400 03007KT 6SM HZ OVC015
      TEMPO 1108/1112 3SM BR
     FM111600 16008KT 6SM BR OVC015=

USA.gov is the U.S. government's official web portal to all federal, state and local government web resources and services.